sat.trackr.live / text

‹ back to catalog

STARLINK-31223

NORAD 58865 · 2024-019N

PAYLOAD ACTIVE UNKNOWN

§ Identity

Operator
Country
US
Launch date
2024-01-29
Launch site
AFETR
Launch vehicle
Mass (kg)
RCS (m²)

Purposes: comms

External: N2YO · Heavens-Above · Gunter

§ Orbital elements

Epoch: 2026-05-25T01:41:27.076128Z

Period
94.27 min
Inclination
43.0031°
Eccentricity
0.0001276
Mean motion
15.27575080 rev/d
Perigee alt
482.2 km
Apogee alt
483.9 km
Semi-major
6,861.2 km
B*
4.8609e-5
RAAN
177.5907°
Arg perigee
275.1038°
Mean anomaly
84.9668°
Rev number
13,074

§ Raw data

STARLINK-312231 58865U 24019N   26145.07045227  .00001076  00000+0  48609-4 0  99972 58865  43.0031 177.5907 0001276 275.1038  84.9668 15.27575080130749

JSON: /api/v1/satellites/58865 · /tle

For live sub-satellite position, see the globe view (requires WebGL).

§ Visibility from observer

Set your observer location to see the next 7 days of passes ≥ 10°. The values pass through the URL so the page stays shareable.

No JS? Fill the form by hand. The geolocation button needs JavaScript.